Location: Rounton
(54.4000°N, 1.3500°W)
Time: 20:46:09
(UTC+01:00)

YAOGAN 20A - Pass Details

Date: 05 July 2022
Orbit: 891 x 1288 km, 63.4° (Epoch: 18 August)

Event Time Altitude Azimuth Distance (km) Brightness Sun altitude
Rises 01:09:41 0° 311° (NW) 3,839 8.7 -12.8°
Reaches altitude 10° 01:12:17 10° 307° (NW) 2,937 7.9 -12.8°
Maximum altitude 01:19:04 53° 233° (SW) 1,403 5.5 -12.8°
Enters shadow 01:25:38 13° 162° (SSE) 2,915 6.8 -12.7°
